User: anonymous   Login
Location: Unspecified
(0.0000°N, 0.0000°E)
Time: 03:33:06
(UTC+00:00)
Language:

OPAL - Orbit

View from above orbital plane
View from above orbital plane
View from above satellite
View from above satellite

Ground track
Ground track

The orbit data is extracted from the following two-line orbital elements,

1 26063U 00004C   17173.58202129 -.00000016 +00000-0 +14798-4 0  9990
2 26063 100.2283 178.1889 0035788 293.9582 065.7853 14.36666080911955
Epoch (UTC): 22 June 2017 13:58:06
Eccentricity: 0.0035788
inclination: 100.2283°
perigee height: 744 km
apogee height: 795 km
right ascension of ascending node: 178.1889°
argument of perigee: 293.9582°
revolutions per day: 14.36666080
mean anomaly at epoch: 65.7853°
orbit number at epoch: 91195

The dashed part of the orbit path shows where the satellite is in the earth's shadow,  

DLR